N6OIL Weather Reports


time (UTC)temp
C
wind
direction
speed
KPH
gust
KPH
rain 1hr
cm
rain 24hr
cm
rain mn
cm
humidity
%
barometer
mb
20260504130204 7 346 17.7 30.6 0.00 0.00 0.00 80 1012.5
20260504120204 7 322 17.7 29.0 0.00 0.00 0.00 81 1012.3
20260504110704 7 307 17.7 25.7 0.00 0.00 0.00 79 1012.2
20260504110204 7 312 16.1 22.5 0.00 0.00 0.00 78 1012.3
20260504100206 8 324 17.7 29.0 0.00 0.00 0.00 69 1012.4
20260504081704 10 324 19.3 33.8 0.00 0.00 0.00 64 1012.9
20260504081204 10 331 20.9 33.8 0.00 0.00 0.00 63 1012.8
20260504060205 11 12 9.7 16.1 0.00 0.00 0.00 62 1012.3
20260504050704 11 334 22.5 38.6 0.00 0.00 0.00 62 1012.0
20260504050204 11 327 22.5 32.2 0.00 0.00 0.00 62 1012.0
20260504045706 11 344 20.9 37.0 0.00 0.00 0.00 62 1012.0
20260504045204 11 353 22.5 37.0 0.00 0.00 0.00 61 1012.0
20260504044705 12 343 24.1 35.4 0.00 0.00 0.00 60 1012.0
20260504044204 12 317 22.5 37.0 0.00 0.00 0.00 59 1012.0
20260504043704 12 332 24.1 37.0 0.00 0.00 0.00 59 1011.9
20260504043205 12 329 24.1 40.2 0.00 0.00 0.00 58 1011.8
20260504042704 12 332 25.7 40.2 0.00 0.00 0.00 58 1011.6
20260504042204 12 344 25.7 43.5 0.00 0.00 0.00 58 1011.5
20260504041704 12 327 24.1 43.5 0.00 0.00 0.00 58 1011.5
20260504041204 12 348 25.7 43.5 0.00 0.00 0.00 58 1011.5
20260504040703 12 335 25.7 35.4 0.00 0.00 0.00 57 1011.3
20260504040204 12 313 24.1 35.4 0.00 0.00 0.00 56 1011.4
20260504035704 12 336 24.1 35.4 0.00 0.00 0.00 56 1011.3
20260504034704 12 313 19.3 37.0 0.00 0.00 0.00 55 1011.1
20260504034204 12 307 20.9 38.6 0.00 0.00 0.00 54 1010.8
20260504033704 12 312 24.1 38.6 0.00 0.00 0.00 54 1010.9
20260504033204 12 309 24.1 38.6 0.00 0.00 0.00 55 1011.0
20260504032704 12 331 24.1 43.5 0.00 0.00 0.00 56 1010.8
20260504032204 13 321 25.7 43.5 0.00 0.00 0.00 56 1010.8
20260504031704 13 306 24.1 43.5 0.00 0.00 0.00 57 1010.8
20260504031204 13 316 22.5 43.5 0.00 0.00 0.00 57 1010.5
20260504030704 13 321 24.1 43.5 0.00 0.00 0.00 57 1010.7
20260504030204 13 309 27.4 43.5 0.00 0.00 0.00 57 1010.4
20260504025704 13 298 27.4 43.5 0.00 0.00 0.00 57 1010.3
20260504025204 13 279 27.4 46.7 0.00 0.00 0.00 57 1010.2
20260504024704 13 319 27.4 46.7 0.00 0.00 0.00 57 1010.1
20260504024204 13 311 27.4 46.7 0.00 0.00 0.00 57 1010.1
20260504023704 13 319 25.7 45.1 0.00 0.00 0.00 57 1009.9
20260504023204 13 311 29.0 45.1 0.00 0.00 0.00 57 1010.0
20260504022704 14 325 30.6 45.1 0.00 0.00 0.00 56 1010.0
20260504022205 14 325 29.0 43.5 0.00 0.00 0.00 55 1009.9
20260504021704 14 309 27.4 46.7 0.00 0.00 0.00 57 1009.9
20260504021205 14 325 29.0 46.7 0.00 0.00 0.00 55 1009.8
20260504020704 15 322 29.0 46.7 0.00 0.00 0.00 56 1009.7
20260504020204 15 292 25.7 46.7 0.00 0.00 0.00 54 1009.8
20260504015704 15 329 27.4 46.7 0.00 0.00 0.00 54 1009.7
20260504014704 15 310 25.7 40.2 0.00 0.00 0.00 53 1009.7
20260504013204 15 342 29.0 48.3 0.00 0.00 0.00 53 1010.0
20260504012704 15 358 29.0 48.3 0.00 0.00 0.00 53 1009.8
20260504012204 16 337 27.4 45.1 0.00 0.00 0.00 51 1009.9
20260504011704 16 303 29.0 45.1 0.00 0.00 0.00 51 1009.9
20260504011204 16 345 25.7 43.5 0.00 0.00 0.00 50 1009.9
20260504010704 16 319 25.7 46.7 0.00 0.00 0.00 48 1009.8
20260504010204 16 333 29.0 46.7 0.00 0.00 0.00 48 1009.7
20260504005704 16 328 29.0 46.7 0.00 0.00 0.00 49 1009.9
20260504005204 16 302 30.6 46.7 0.00 0.00 0.00 50 1009.8
20260504004204 16 344 29.0 40.2 0.00 0.00 0.00 49 1009.7
20260504003704 17 297 29.0 48.3 0.00 0.00 0.00 49 1009.9
20260504003204 17 319 29.0 51.5 0.00 0.00 0.00 50 1009.7
20260504002704 17 304 32.2 51.5 0.00 0.00 0.00 50 1009.7
20260504002204 17 298 33.8 51.5 0.00 0.00 0.00 48 1009.4
20260504001705 17 316 33.8 49.9 0.00 0.00 0.00 47 1009.5
20260504001204 17 320 32.2 49.9 0.00 0.00 0.00 46 1009.7
20260504000704 17 315 32.2 43.5 0.00 0.00 0.00 45 1009.7
20260504000204 17 332 30.6 51.5 0.00 0.00 0.00 44 1009.3
20260503235704 17 308 32.2 51.5 0.00 0.00 0.00 46 1009.4
20260503235204 17 293 33.8 51.5 0.00 0.00 0.00 49 1009.4
20260503234704 17 306 32.2 51.5 0.00 0.00 0.00 49 1009.5
20260503233704 17 322 32.2 45.1 0.00 0.00 0.00 49 1009.7
20260503233204 17 333 32.2 48.3 0.00 0.00 0.00 50 1009.5
20260503232704 17 302 32.2 48.3 0.00 0.00 0.00 50 1009.7
20260503232204 17 304 32.2 48.3 0.00 0.00 0.00 49 1009.5
20260503231706 18 312 32.2 48.3 0.00 0.00 0.00 49 1009.5
20260503231204 18 319 33.8 48.3 0.00 0.00 0.00 49 1009.5
20260503230704 18 313 33.8 48.3 0.00 0.00 0.00 49 1009.5
20260503230204 18 311 30.6 46.7 0.00 0.00 0.00 49 1009.7
20260503225705 18 310 29.0 46.7 0.00 0.00 0.00 48 1009.7
20260503225204 18 272 30.6 46.7 0.00 0.00 0.00 48 1010.0
20260503224704 18 287 29.0 46.7 0.00 0.00 0.00 48 1009.9
20260503224204 18 289 29.0 46.7 0.00 0.00 0.00 48 1010.1
20260503223704 19 322 29.0 43.5 0.00 0.00 0.00 47 1009.8
20260503223204 19 297 29.0 43.5 0.00 0.00 0.00 48 1010.1
20260503222704 19 296 29.0 46.7 0.00 0.00 0.00 47 1010.1
20260503222205 19 286 30.6 46.7 0.00 0.00 0.00 48 1010.0
20260503221704 19 261 29.0 45.1 0.00 0.00 0.00 48 1010.3
20260503220705 19 282 29.0 41.8 0.00 0.00 0.00 47 1010.4
20260503220204 19 296 30.6 41.8 0.00 0.00 0.00 47 1010.4
20260503215204 20 285 30.6 41.8 0.00 0.00 0.00 45 1010.4
20260503214204 20 303 25.7 38.6 0.00 0.00 0.00 44 1010.7
20260503213705 20 323 27.4 38.6 0.00 0.00 0.00 45 1010.7
20260503213204 20 286 27.4 38.6 0.00 0.00 0.00 45 1010.8
20260503212704 20 279 27.4 38.6 0.00 0.00 0.00 45 1011.0
20260503212204 20 304 27.4 43.5 0.00 0.00 0.00 43 1011.0
20260503211704 20 358 29.0 43.5 0.00 0.00 0.00 43 1010.9
20260503211204 21 286 29.0 43.5 0.00 0.00 0.00 40 1010.8
20260503210705 21 358 27.4 40.2 0.00 0.00 0.00 41 1010.5
20260503210204 20 358 27.4 37.0 0.00 0.00 0.00 41 1010.9
20260503205704 20 283 27.4 40.2 0.00 0.00 0.00 41 1010.8
20260503205204 21 290 27.4 40.2 0.00 0.00 0.00 41 1010.8
20260503204704 22 358 27.4 40.2 0.00 0.00 0.00 37 1010.8
20260503204204 22 358 25.7 41.8 0.00 0.00 0.00 37 1010.8
20260503203704 21 305 27.4 41.8 0.00 0.00 0.00 38 1010.8
20260503203204 20 323 27.4 37.0 0.00 0.00 0.00 44 1010.9
20260503202704 20 313 25.7 38.6 0.00 0.00 0.00 46 1011.0
20260503202204 20 288 27.4 43.5 0.00 0.00 0.00 46 1011.1
20260503201704 20 296 29.0 43.5 0.00 0.00 0.00 47 1011.2
20260503201204 20 303 29.0 43.5 0.00 0.00 0.00 45 1011.2
20260503200204 19 284 25.7 40.2 0.00 0.00 0.00 49 1011.3
20260503195204 19 307 30.6 43.5 0.00 0.00 0.00 51 1011.4
20260503194704 18 289 32.2 43.5 0.00 0.00 0.00 51 1011.4
20260503194204 18 294 29.0 41.8 0.00 0.00 0.00 53 1011.3
20260503193704 18 332 29.0 41.8 0.00 0.00 0.00 54 1011.5
20260503192704 18 304 30.6 41.8 0.00 0.00 0.00 53 1011.8
20260503191705 18 296 29.0 43.5 0.00 0.00 0.00 56 1011.8
20260503191205 17 283 30.6 43.5 0.00 0.00 0.00 57 1011.9
20260503190204 17 310 29.0 43.5 0.00 0.00 0.00 57 1012.0
20260503185704 17 283 29.0 41.8 0.00 0.00 0.00 55 1012.0
20260503185203 18 289 29.0 41.8 0.00 0.00 0.00 54 1012.0
20260503184704 18 304 27.4 41.8 0.00 0.00 0.00 53 1012.1
20260503184205 18 300 25.7 37.0 0.00 0.00 0.00 53 1012.1
20260503183704 18 301 24.1 37.0 0.00 0.00 0.00 56 1012.1
20260503183204 17 271 25.7 37.0 0.00 0.00 0.00 58 1012.1
20260503182704 17 286 25.7 35.4 0.00 0.00 0.00 55 1012.2
20260503182204 17 307 24.1 35.4 0.00 0.00 0.00 55 1012.3
20260503181204 17 304 22.5 32.2 0.00 0.00 0.00 55 1012.3
20260503180704 17 292 22.5 35.4 0.00 0.00 0.00 54 1012.3
20260503175704 17 295 24.1 37.0 0.00 0.00 0.00 54 1012.3
20260503174704 17 284 25.7 38.6 0.00 0.00 0.00 55 1012.3
20260503173704 16 286 25.7 41.8 0.00 0.00 0.00 58 1012.3
20260503173204 16 285 25.7 32.2 0.00 0.00 0.00 57 1012.3
20260503172705 17 292 22.5 30.6 0.00 0.00 0.00 55 1012.3
20260503172204 17 285 20.9 30.6 0.00 0.00 0.00 55 1012.2
20260503171704 17 300 22.5 30.6 0.00 0.00 0.00 56 1012.2
20260503171207 17 294 22.5 32.2 0.00 0.00 0.00 55 1012.1
20260503170705 17 317 24.1 32.2 0.00 0.00 0.00 57 1012.0
20260503170204 17 280 25.7 35.4 0.00 0.00 0.00 57 1012.1
20260503160204 16 291 20.9 32.2 0.00 0.00 0.00 65 1012.3
20260503150704 14 340 17.7 32.2 0.00 0.00 0.00 73 1012.2
20260503140206 14 335 20.9 32.2 0.00 0.00 0.00 72 1011.8